Flag for U.S.A. Weather past 2 weeks in Sheboygan, Wisconsin, U.S.A.

Now
50 °F

Clear.


Feels Like: 50 °F
Forecast: 51 / 66 °F
Wind: No wind

Location: Sheboygan County Memorial Airport

Current Time: Jul 1, 2015 at 11:46:14 PM

Latest Report: Jul 1, 2015 at 10:53 PM


Visibility: 7 mi

Pressure: 30.04 "Hg

Humidity: 93%

Dew point: 48 °F

Location of SheboyganLocation

Historic Weather in Sheboygan — Graph

°F

Sheboygan temperature yesterday

Maximum temperature yesterday: 69 °F (at 10:53 AM)
Minimum temperature yesterday: 54 °F (at 9:53 PM)
Average temperature yesterday: 63 °F

Past Weeks' High & Low Weather Summary

 TemperatureHumidityPressure
High83 °F (Jun 22, 3:53 PM)97% (Jun 22, 4:53 AM)30.18 "Hg (Jun 22, 4:53 AM)
Low48 °F (Jun 19, 4:53 AM)42% (Jun 24, 11:53 AM)29.61 "Hg (Jun 22, 2:53 PM)
Average64 °F74%29.94 "Hg
* Reported Jun 16 9:53 PM — Jul 1 9:53 PM, Sheboygan, Weather by CustomWeather, © 2015

Note: Actual official high and low records may vary slightly from our data, if they occured in-between our weather recording intervals... More about our weather records

Advertising

Sheboygan weather history for previous 24 hours

 ConditionsComfort  
Time TempWeatherWind HumidityBarometerVisibility
9:53 PM
Wed, Jul 1
52 °FClear.No wind93%30.04 "Hg10 mi
8:53 PM52 °FSunny.No wind89%30.02 "Hg10 mi
7:53 PM58 °FSunny.7 mph78%30.01 "Hg10 mi
6:53 PM63 °FSunny.5 mph68%29.99 "Hg10 mi
5:53 PM62 °FSunny.No wind73%29.99 "Hg10 mi
4:53 PM60 °FSunny.9 mph78%29.99 "Hg10 mi
3:53 PM60 °FPassing clouds.8 mph78%30.00 "Hg10 mi
2:53 PM62 °FBroken clouds.10 mph75%29.99 "Hg10 mi
1:53 PM64 °FMostly cloudy.N/A70%29.99 "Hg10 mi
12:53 PM60 °FOvercast.7 mph75%30.00 "Hg10 mi
11:53 AM61 °FOvercast.9 mph70%29.99 "Hg10 mi
10:53 AM59 °FOvercast.9 mph72%29.98 "Hg10 mi
9:53 AM57 °FOvercast.6 mph78%29.98 "Hg10 mi
8:53 AM57 °FOvercast.6 mph74%29.97 "Hg10 mi
7:53 AM54 °FOvercast.6 mph80%29.97 "Hg10 mi
6:53 AM52 °FOvercast.6 mph83%29.96 "Hg10 mi
5:53 AM51 °FOvercast.7 mph83%29.96 "Hg10 mi
4:53 AM49 °FClear.5 mph86%29.95 "Hg10 mi
3:53 AM50 °FClear.5 mph86%29.94 "Hg10 mi
2:53 AM51 °FClear.6 mph86%29.93 "Hg10 mi
1:53 AM52 °FClear.5 mph93%29.93 "Hg10 mi
12:53 AM54 °FLow clouds.No wind93%29.93 "Hg10 mi
Weather by CustomWeather, © 2015

See weather overviewHow to use our weather pages